Flag for Switzerland Weather past 2 weeks in Vevey, Vaud, Switzerland

Now
63 °F

Mild.


Feels Like: 63 °F
Forecast: 60 / 80 °F
Wind: 2 mph from South

Location: Aigle

Current Time: Sep 19, 2014 at 9:51:50 PM

Latest Report: Sep 19, 2014 at 9:00 PM


Visibility: N/A

Pressure: 30.00 "Hg

Humidity: 94%

Dew point: 61 °F

Location of VeveyLocation

Historic Weather in Vevey — Graph

°F

Vevey temperature yesterday

Maximum temperature yesterday: 72 °F (at 6:00 PM)
Minimum temperature yesterday: 60 °F (at 1:00 AM)
Average temperature yesterday: 65 °F

Past Weeks' High & Low Weather Summary

 TemperatureHumidityPressure
High76 °F (Sep 7, 4:00 PM)100% (Sep 10, 7:00 AM)30.11 "Hg (Sep 10, 7:00 AM)
Low47 °F (Sep 12, 8:00 AM)51% (Sep 12, 5:00 PM)29.82 "Hg (Sep 17, 3:00 PM)
Average63 °F81%29.96 "Hg
* Reported Sep 4 8:00 PM — Sep 19 8:00 PM, Vevey, Weather by CustomWeather, © 2014

Note: Actual official high and low records may vary slightly from our data, if they occured in-between our weather recording intervals... More about our weather records

Advertising

Vevey weather history for previous 24 hours

 ConditionsComfort  
Time TempWeatherWind HumidityBarometerVisibility
8:00 PM
Sep 19
64 °FRain. Overcast.3 mph93%29.99 "Hg4 mi
7:00 PM66 °FMild.1 mph89%29.96 "HgN/A
6:00 PM67 °FMild.3 mph80%29.94 "HgN/A
5:00 PM69 °FOvercast.7 mph65%29.93 "Hg16 mi
4:00 PM70 °FMild.6 mph74%29.94 "HgN/A
3:00 PM66 °FMild.5 mph82%29.97 "HgN/A
2:00 PM67 °FOvercast.7 mph91%29.98 "Hg19 mi
1:00 PM65 °FMild.1 mph91%29.99 "HgN/A
12:00 PM65 °FMild.5 mph88%29.98 "HgN/A
11:00 AM65 °FPartly sunny.5 mph87%29.98 "Hg12 mi
10:00 AM68 °FMild.1 mph66%29.94 "HgN/A
9:00 AM64 °FMild.5 mph85%29.93 "HgN/A
8:00 AM63 °FPartly sunny.2 mph90%29.95 "Hg16 mi
7:00 AM62 °FCool.3 mph85%29.94 "HgN/A
6:00 AM68 °FMild.3 mph54%29.91 "HgN/A
5:00 AM66 °FOvercast.5 mph60%29.90 "Hg12 mi
4:00 AM65 °FMild.2 mph69%29.92 "HgN/A
3:00 AM65 °FMild.2 mph64%29.93 "HgN/A
2:00 AM62 °FCool.6 mph80%29.94 "HgN/A
1:00 AM64 °FMild.3 mph72%29.94 "HgN/A
12:00 AM66 °FMild.5 mph68%29.93 "HgN/A
11:00 PM
Sep 18
63 °FMild.2 mph82%29.92 "HgN/A
10:00 PM64 °FMild.6 mph82%29.92 "HgN/A
9:00 PM63 °FMild.5 mph89%29.90 "HgN/A
Weather by CustomWeather, © 2014

See weather overviewHow to use our weather pages